| time (UTC) | temp C | wind direction | speed KPH | gust KPH | rain 1hr cm | rain 24hr cm | rain mn cm | humidity % | barometer mb |
| 20260504224132 | 27 | 82 | 1.6 | 6.4 | 0.00 | 1.98 | 1.98 | 89 | 1011.4 |
| 20260504223629 | 27 | 110 | 1.6 | 8.0 | 0.00 | 1.98 | 1.98 | 90 | 1011.4 |
| 20260504223125 | 27 | 67 | 0.0 | 4.8 | 0.00 | 1.98 | 1.98 | 91 | 1011.4 |
| 20260504222623 | 27 | 44 | 0.0 | 1.6 | 0.00 | 1.98 | 1.98 | 91 | 1011.4 |
| 20260504222119 | 27 | 83 | 1.6 | 6.4 | 0.00 | 1.98 | 1.98 | 91 | 1011.4 |
| 20260504221616 | 26 | 91 | 4.8 | 6.4 | 0.00 | 1.98 | 1.98 | 91 | 1011.4 |
| 20260504221113 | 26 | 85 | 4.8 | 6.4 | 0.00 | 1.98 | 1.98 | 91 | 1011.4 |
| 20260504220609 | 26 | 90 | 6.4 | 9.7 | 0.00 | 1.98 | 1.98 | 91 | 1011.4 |
| 20260504220107 | 26 | 88 | 6.4 | 11.3 | 0.00 | 1.98 | 1.98 | 91 | 1011.4 |
| 20260504215603 | 26 | 92 | 6.4 | 9.7 | 0.00 | 1.98 | 1.98 | 91 | 1011.4 |
| 20260504215101 | 26 | 86 | 4.8 | 8.0 | 0.00 | 1.96 | 1.96 | 91 | 1011.4 |
| 20260504214557 | 26 | 89 | 6.4 | 9.7 | 2.39 | 1.88 | 1.88 | 91 | 1011.0 |
| 20260504214053 | 26 | 86 | 8.0 | 12.9 | 1.19 | 1.75 | 1.75 | 91 | 1011.0 |
| 20260504213549 | 26 | 91 | 6.4 | 11.3 | 8.41 | 1.57 | 1.57 | 90 | 1011.0 |
| 20260504213047 | 26 | 82 | 9.7 | 11.3 | 0.00 | 1.40 | 1.40 | 90 | 1011.0 |
| 20260504212542 | 26 | 85 | 9.7 | 11.3 | 1.19 | 1.37 | 1.37 | 90 | 1011.0 |
| 20260504212040 | 26 | 68 | 3.2 | 6.4 | 0.00 | 1.35 | 1.35 | 90 | 1011.0 |
| 20260504211537 | 26 | 87 | 6.4 | 9.7 | 2.39 | 1.27 | 1.27 | 89 | 1010.7 |
| 20260504211034 | 26 | 112 | 1.6 | 9.7 | 7.19 | 1.07 | 1.07 | 89 | 1010.7 |
| 20260504210531 | 26 | 80 | 8.0 | 12.9 | 1.19 | 0.99 | 0.99 | 89 | 1010.4 |
| 20260504210027 | 26 | 52 | 0.0 | 0.0 | 0.00 | 0.99 | 0.99 | 88 | 1010.4 |
| 20260504205525 | 26 | 38 | 0.0 | 0.0 | 0.00 | 0.99 | 0.99 | 88 | 1010.4 |
| 20260504205023 | 26 | 76 | 0.0 | 0.0 | 0.00 | 0.99 | 0.99 | 88 | 1010.4 |
| 20260504204521 | 26 | 90 | 0.0 | 0.0 | 0.00 | 0.99 | 0.99 | 87 | 1010.4 |
| 20260504204020 | 26 | 53 | 0.0 | 0.0 | 0.00 | 0.99 | 0.99 | 87 | 1010.0 |
| 20260504203517 | 26 | 120 | 0.0 | 3.2 | 0.00 | 0.99 | 0.99 | 87 | 1010.0 |
| 20260504203015 | 27 | 98 | 1.6 | 6.4 | 0.00 | 0.99 | 0.99 | 88 | 1010.0 |
| 20260504202510 | 27 | 91 | 0.0 | 6.4 | 0.00 | 0.99 | 0.99 | 88 | 1009.7 |
| 20260504202007 | 26 | 67 | 0.0 | 0.0 | 0.00 | 0.99 | 0.99 | 87 | 1009.7 |
| 20260504201504 | 26 | 89 | 0.0 | 0.0 | 0.00 | 0.99 | 0.99 | 88 | 1009.7 |
| 20260504201002 | 26 | 78 | 0.0 | 3.2 | 0.00 | 0.99 | 0.99 | 88 | 1009.7 |
| 20260504200458 | 26 | 74 | 1.6 | 6.4 | 0.00 | 0.99 | 0.99 | 89 | 1009.7 |
| 20260504195955 | 26 | 60 | 0.0 | 0.0 | 0.00 | 0.99 | 0.99 | 89 | 1009.7 |
| 20260504195450 | 26 | 97 | 1.6 | 6.4 | 0.00 | 0.99 | 0.99 | 90 | 1009.7 |
| 20260504194947 | 26 | 68 | 0.0 | 4.8 | 0.00 | 0.99 | 0.99 | 90 | 1009.3 |
| 20260504194443 | 26 | 73 | 3.2 | 14.5 | 0.00 | 0.99 | 0.99 | 91 | 1009.3 |
| 20260504193939 | 26 | 45 | 0.0 | 0.0 | 0.00 | 0.99 | 0.99 | 91 | 1009.3 |
| 20260504193437 | 26 | 62 | 0.0 | 0.0 | 0.00 | 0.99 | 0.99 | 90 | 1009.0 |
| 20260504192935 | 26 | 159 | 0.0 | 0.0 | 0.00 | 0.99 | 0.99 | 90 | 1009.0 |
| 20260504192432 | 26 | 138 | 0.0 | 3.2 | 0.00 | 0.99 | 0.99 | 90 | 1009.0 |
| 20260504191931 | 26 | 193 | 4.8 | 8.0 | 0.00 | 0.99 | 0.99 | 90 | 1009.3 |
| 20260504191429 | 26 | 151 | 0.0 | 3.2 | 0.00 | 0.99 | 0.99 | 89 | 1009.3 |
| 20260504190924 | 26 | 79 | 0.0 | 4.8 | 0.00 | 0.99 | 0.99 | 89 | 1009.3 |
| 20260504190420 | 26 | 87 | 1.6 | 6.4 | 0.00 | 0.99 | 0.99 | 88 | 1009.3 |
| 20260504185917 | 27 | 86 | 1.6 | 6.4 | 0.00 | 0.97 | 0.97 | 88 | 1009.0 |
| 20260504185414 | 27 | 128 | 4.8 | 11.3 | 0.00 | 0.94 | 0.94 | 88 | 1009.0 |
| 20260504184910 | 27 | 88 | 1.6 | 8.0 | 0.00 | 0.94 | 0.94 | 88 | 1009.0 |
| 20260504184406 | 27 | 88 | 1.6 | 6.4 | 0.00 | 0.94 | 0.94 | 88 | 1008.7 |
| 20260504183902 | 26 | 94 | 3.2 | 6.4 | 0.00 | 0.94 | 0.94 | 89 | 1008.7 |
| 20260504183400 | 26 | 84 | 4.8 | 11.3 | 0.00 | 0.94 | 0.94 | 90 | 1008.7 |
| 20260504182857 | 26 | 93 | 6.4 | 11.3 | 0.00 | 0.94 | 0.94 | 91 | 1009.0 |
| 20260504182354 | 26 | 41 | 0.0 | 0.0 | 0.00 | 0.94 | 0.94 | 91 | 1009.0 |
| 20260504181850 | 26 | 193 | 0.0 | 1.6 | 0.00 | 0.94 | 0.94 | 91 | 1008.7 |
| 20260504181348 | 26 | 46 | 0.0 | 0.0 | 0.00 | 0.94 | 0.94 | 91 | 1008.7 |
| 20260504180847 | 26 | 53 | 0.0 | 0.0 | 0.00 | 0.94 | 0.94 | 91 | 1008.7 |
| 20260504180345 | 26 | 113 | 0.0 | 3.2 | 0.00 | 0.94 | 0.94 | 91 | 1008.7 |
| 20260504175843 | 26 | 49 | 0.0 | 0.0 | 0.00 | 0.94 | 0.94 | 91 | 1008.7 |
| 20260504175339 | 26 | 62 | 0.0 | 0.0 | 0.00 | 0.94 | 0.94 | 91 | 1008.7 |
| 20260504174838 | 26 | 123 | 0.0 | 4.8 | 0.00 | 0.94 | 0.94 | 91 | 1008.7 |
| 20260504174335 | 26 | 64 | 0.0 | 0.0 | 0.00 | 0.94 | 0.94 | 91 | 1008.7 |
| 20260504173832 | 26 | 63 | 0.0 | 0.0 | 0.00 | 0.94 | 0.94 | 91 | 1008.7 |
| 20260504173328 | 26 | 86 | 0.0 | 0.0 | 0.00 | 0.94 | 0.94 | 91 | 1008.3 |
| 20260504172825 | 26 | 48 | 0.0 | 0.0 | 0.00 | 0.94 | 0.94 | 91 | 1008.3 |
| 20260504172322 | 26 | 15 | 0.0 | 0.0 | 0.00 | 0.94 | 0.94 | 91 | 1008.3 |
| 20260504171818 | 26 | 352 | 0.0 | 3.2 | 0.00 | 0.94 | 0.94 | 91 | 1008.3 |
| 20260504171315 | 26 | 94 | 0.0 | 4.8 | 0.00 | 0.94 | 0.94 | 91 | 1008.3 |
| 20260504170812 | 26 | 355 | 0.0 | 0.0 | 0.00 | 0.94 | 0.94 | 91 | 1008.3 |
| 20260504170309 | 26 | 176 | 1.6 | 4.8 | 0.00 | 0.94 | 0.94 | 91 | 1008.0 |
| 20260504160227 | 26 | 120 | 0.0 | 0.0 | 0.00 | 0.94 | 0.94 | 92 | 1008.3 |
| 20260504150653 | 26 | 89 | 12.9 | 16.1 | 3.61 | 0.69 | 0.69 | 91 | 1009.3 |
| 20260504150150 | 26 | 83 | 12.9 | 16.1 | 3.61 | 0.56 | 0.56 | 91 | 1009.3 |
| 20260504141119 | 26 | 131 | 1.6 | 6.4 | 0.00 | 0.23 | 0.23 | 88 | 1009.7 |
| 20260504140616 | 26 | 325 | 0.0 | 4.8 | 1.19 | 0.20 | 0.20 | 87 | 1010.0 |
| 20260504140111 | 27 | 75 | 0.0 | 0.0 | 2.39 | 0.08 | 0.08 | 87 | 1010.0 |
| 20260504130539 | 27 | 75 | 0.0 | 4.8 | 0.00 | 0.00 | 0.00 | 85 | 1010.4 |
| 20260504110427 | 28 | 94 | 6.4 | 11.3 | 0.00 | 0.18 | 0.18 | 84 | 1010.7 |
| 20260504100343 | 27 | 46 | 0.0 | 0.0 | 0.00 | 0.18 | 0.18 | 89 | 1010.4 |
| 20260504081737 | 28 | 90 | 9.7 | 12.9 | 0.00 | 0.13 | 0.13 | 83 | 1009.3 |
| 20260504081233 | 28 | 83 | 9.7 | 12.9 | 0.00 | 0.13 | 0.13 | 84 | 1009.3 |
| 20260504080730 | 28 | 78 | 9.7 | 11.3 | 0.00 | 0.13 | 0.13 | 84 | 1009.3 |
| 20260504080226 | 28 | 74 | 9.7 | 11.3 | 0.00 | 0.13 | 0.13 | 84 | 1009.3 |
| 20260504070154 | 29 | 78 | 9.7 | 11.3 | 0.00 | 0.13 | 0.13 | 82 | 1008.7 |
| 20260504060120 | 30 | 76 | 8.0 | 11.3 | 0.00 | 0.13 | 0.13 | 79 | 1007.7 |
| 20260504050548 | 30 | 90 | 8.0 | 9.7 | 0.00 | 0.13 | 0.13 | 78 | 1007.7 |
| 20260504045541 | 30 | 82 | 6.4 | 9.7 | 0.00 | 0.13 | 0.13 | 79 | 1007.7 |
| 20260504045037 | 30 | 79 | 6.4 | 8.0 | 0.00 | 0.13 | 0.13 | 78 | 1007.7 |
| 20260504044534 | 30 | 79 | 6.4 | 9.7 | 0.00 | 0.13 | 0.13 | 77 | 1007.7 |
| 20260504044031 | 31 | 73 | 4.8 | 8.0 | 0.00 | 0.13 | 0.13 | 77 | 1007.7 |
| 20260504043528 | 31 | 83 | 8.0 | 9.7 | 0.00 | 0.13 | 0.13 | 76 | 1007.7 |
| 20260504043026 | 30 | 86 | 8.0 | 9.7 | 0.00 | 0.13 | 0.13 | 78 | 1007.7 |
| 20260504042523 | 30 | 86 | 6.4 | 9.7 | 0.00 | 0.13 | 0.13 | 79 | 1007.7 |
| 20260504042020 | 30 | 79 | 8.0 | 11.3 | 0.00 | 0.13 | 0.13 | 78 | 1007.7 |
| 20260504041515 | 31 | 93 | 8.0 | 9.7 | 0.00 | 0.13 | 0.13 | 78 | 1007.7 |
| 20260504041011 | 31 | 89 | 9.7 | 11.3 | 0.00 | 0.13 | 0.13 | 78 | 1007.7 |
| 20260504040509 | 31 | 99 | 6.4 | 11.3 | 0.00 | 0.13 | 0.13 | 78 | 1007.7 |
| 20260504040005 | 31 | 101 | 6.4 | 12.9 | 0.00 | 0.13 | 0.13 | 76 | 1007.7 |
| 20260504035503 | 32 | 93 | 3.2 | 14.5 | 0.00 | 0.13 | 0.13 | 73 | 1007.7 |
| 20260504034937 | 32 | 89 | 11.3 | 14.5 | 0.00 | 0.13 | 0.13 | 73 | 1007.7 |
| 20260504034434 | 32 | 89 | 11.3 | 14.5 | 0.00 | 0.13 | 0.13 | 73 | 1007.7 |
| 20260504033931 | 32 | 89 | 11.3 | 14.5 | 0.00 | 0.13 | 0.13 | 73 | 1007.7 |
| 20260504033429 | 31 | 82 | 8.0 | 9.7 | 0.00 | 0.13 | 0.13 | 73 | 1007.7 |
| 20260504032926 | 31 | 89 | 9.7 | 14.5 | 0.00 | 0.13 | 0.13 | 73 | 1007.7 |
| 20260504032423 | 31 | 84 | 8.0 | 9.7 | 0.00 | 0.13 | 0.13 | 74 | 1007.7 |
| 20260504031919 | 32 | 81 | 8.0 | 9.7 | 0.00 | 0.13 | 0.13 | 73 | 1007.7 |
| 20260504031417 | 31 | 90 | 9.7 | 12.9 | 0.00 | 0.13 | 0.13 | 73 | 1007.7 |
| 20260504030913 | 31 | 85 | 11.3 | 14.5 | 0.00 | 0.13 | 0.13 | 74 | 1007.7 |
| 20260504030410 | 31 | 85 | 11.3 | 14.5 | 0.00 | 0.13 | 0.13 | 74 | 1007.7 |
| 20260504025906 | 31 | 85 | 11.3 | 14.5 | 0.00 | 0.13 | 0.13 | 74 | 1007.7 |
| 20260504025403 | 31 | 77 | 8.0 | 11.3 | 0.00 | 0.13 | 0.13 | 73 | 1007.7 |
| 20260504024900 | 31 | 80 | 8.0 | 9.7 | 0.00 | 0.13 | 0.13 | 73 | 1007.7 |
| 20260504024356 | 31 | 86 | 9.7 | 12.9 | 0.00 | 0.13 | 0.13 | 73 | 1008.0 |
| 20260504023854 | 32 | 96 | 9.7 | 12.9 | 0.00 | 0.13 | 0.13 | 72 | 1007.7 |
| 20260504023350 | 32 | 89 | 9.7 | 14.5 | 0.00 | 0.13 | 0.13 | 73 | 1007.7 |
| 20260504022845 | 31 | 77 | 8.0 | 11.3 | 0.00 | 0.13 | 0.13 | 73 | 1008.0 |
| 20260504022343 | 31 | 89 | 11.3 | 14.5 | 0.00 | 0.13 | 0.13 | 74 | 1008.0 |
| 20260504021839 | 32 | 87 | 9.7 | 12.9 | 0.00 | 0.13 | 0.13 | 73 | 1008.0 |
| 20260504021337 | 32 | 80 | 9.7 | 11.3 | 0.00 | 0.13 | 0.13 | 73 | 1008.0 |
| 20260504020833 | 32 | 83 | 9.7 | 11.3 | 0.00 | 0.13 | 0.13 | 72 | 1008.3 |
| 20260504020330 | 32 | 84 | 9.7 | 11.3 | 0.00 | 0.13 | 0.13 | 71 | 1008.3 |
| 20260504015826 | 32 | 76 | 8.0 | 11.3 | 0.00 | 0.13 | 0.13 | 74 | 1008.3 |
| 20260504015322 | 31 | 78 | 8.0 | 9.7 | 0.00 | 0.13 | 0.13 | 74 | 1008.3 |
| 20260504014819 | 32 | 84 | 9.7 | 12.9 | 0.00 | 0.13 | 0.13 | 73 | 1008.7 |
| 20260504014315 | 32 | 85 | 9.7 | 14.5 | 0.00 | 0.13 | 0.13 | 73 | 1008.3 |
| 20260504013813 | 32 | 87 | 8.0 | 11.3 | 0.00 | 0.13 | 0.13 | 73 | 1008.3 |
| 20260504013310 | 32 | 90 | 9.7 | 12.9 | 0.00 | 0.13 | 0.13 | 74 | 1008.3 |
| 20260504012807 | 32 | 82 | 9.7 | 11.3 | 0.00 | 0.13 | 0.13 | 73 | 1008.7 |
| 20260504012305 | 32 | 89 | 8.0 | 14.5 | 0.00 | 0.13 | 0.13 | 74 | 1008.7 |
| 20260504011802 | 32 | 93 | 9.7 | 14.5 | 0.00 | 0.13 | 0.13 | 72 | 1008.7 |
| 20260504011258 | 32 | 98 | 9.7 | 14.5 | 0.00 | 0.13 | 0.13 | 73 | 1008.7 |
| 20260504010754 | 32 | 86 | 9.7 | 12.9 | 0.00 | 0.13 | 0.13 | 73 | 1008.7 |
| 20260504010250 | 31 | 87 | 8.0 | 11.3 | 0.00 | 0.13 | 0.13 | 74 | 1009.0 |
| 20260504005747 | 32 | 88 | 9.7 | 12.9 | 0.00 | 0.13 | 0.13 | 74 | 1009.3 |
| 20260504005244 | 31 | 86 | 8.0 | 11.3 | 0.00 | 0.13 | 0.13 | 73 | 1009.0 |
| 20260504004741 | 32 | 91 | 11.3 | 14.5 | 0.00 | 0.13 | 0.13 | 73 | 1009.3 |
| 20260504004239 | 32 | 85 | 8.0 | 11.3 | 0.00 | 0.13 | 0.13 | 71 | 1009.3 |
| 20260504003735 | 33 | 86 | 6.4 | 9.7 | 0.00 | 0.13 | 0.13 | 69 | 1009.3 |
| 20260504003232 | 34 | 66 | 3.2 | 4.8 | 0.00 | 0.13 | 0.13 | 69 | 1009.3 |
| 20260504002728 | 33 | 72 | 0.0 | 3.2 | 0.00 | 0.13 | 0.13 | 69 | 1009.7 |
| 20260504002225 | 33 | 64 | 3.2 | 4.8 | 0.00 | 0.13 | 0.13 | 71 | 1009.7 |
| 20260504001723 | 32 | 67 | 3.2 | 6.4 | 0.00 | 0.13 | 0.13 | 72 | 1009.7 |
| 20260504001220 | 32 | 74 | 4.8 | 8.0 | 0.00 | 0.13 | 0.13 | 72 | 1009.7 |
| 20260504000717 | 32 | 69 | 3.2 | 4.8 | 0.00 | 0.13 | 0.13 | 73 | 1009.7 |
| 20260504000214 | 32 | 68 | 3.2 | 4.8 | 0.00 | 0.13 | 0.13 | 74 | 1009.7 |
| 20260503235712 | 32 | 68 | 4.8 | 6.4 | 0.00 | 0.13 | 0.13 | 74 | 1009.7 |
| 20260503235209 | 32 | 71 | 8.0 | 9.7 | 0.00 | 0.13 | 0.13 | 77 | 1009.7 |
| 20260503234706 | 31 | 80 | 6.4 | 8.0 | 0.00 | 0.13 | 0.13 | 76 | 1010.0 |
| 20260503234205 | 32 | 71 | 3.2 | 8.0 | 0.00 | 0.13 | 0.13 | 72 | 1010.0 |
| 20260503233701 | 32 | 70 | 6.4 | 8.0 | 0.00 | 0.13 | 0.13 | 73 | 1009.7 |
| 20260503233157 | 32 | 78 | 8.0 | 9.7 | 0.00 | 0.13 | 0.13 | 72 | 1010.4 |
| 20260503232653 | 33 | 65 | 1.6 | 4.8 | 0.00 | 0.13 | 0.13 | 68 | 1010.0 |
| 20260503232151 | 33 | 74 | 4.8 | 6.4 | 0.00 | 0.13 | 0.13 | 70 | 1010.0 |
| 20260503231649 | 33 | 63 | 1.6 | 4.8 | 0.00 | 0.13 | 0.13 | 69 | 1010.0 |
| 20260503231145 | 33 | 64 | 1.6 | 4.8 | 0.00 | 0.13 | 0.13 | 68 | 1010.0 |
| 20260503230642 | 33 | 50 | 3.2 | 4.8 | 0.00 | 0.13 | 0.13 | 69 | 1009.7 |
| 20260503230139 | 33 | 65 | 1.6 | 4.8 | 0.00 | 0.13 | 0.13 | 71 | 1009.7 |
| 20260503225637 | 33 | 59 | 1.6 | 4.8 | 0.00 | 0.13 | 0.13 | 70 | 1010.0 |
| 20260503225136 | 33 | 47 | 0.0 | 0.0 | 0.00 | 0.13 | 0.13 | 70 | 1010.0 |
| 20260503224634 | 33 | 65 | 1.6 | 4.8 | 0.00 | 0.13 | 0.13 | 70 | 1010.0 |